Year,Month,Day,Hour,Minute,Value (Times are PST for temperature in C)
2015,03,18,00,00,6.70
2015,03,18,00,01,6.70
2015,03,18,00,02,6.70
2015,03,18,00,03,6.60
2015,03,18,00,04,6.60
2015,03,18,00,05,6.50
2015,03,18,00,06,6.50
2015,03,18,00,07,6.50
2015,03,18,00,08,6.50
2015,03,18,00,09,6.40
2015,03,18,00,10,6.40
2015,03,18,00,11,6.40
2015,03,18,00,12,6.40
2015,03,18,00,13,6.30
2015,03,18,00,14,6.30
2015,03,18,00,15,6.30
2015,03,18,00,16,6.30
2015,03,18,00,17,6.30
2015,03,18,00,18,6.20
2015,03,18,00,19,6.20
2015,03,18,00,20,6.20
2015,03,18,00,21,6.20
2015,03,18,00,22,6.20
2015,03,18,00,23,6.10
2015,03,18,00,24,6.10
2015,03,18,00,25,6.00
2015,03,18,00,26,5.90
2015,03,18,00,27,5.90
2015,03,18,00,28,5.80
2015,03,18,00,29,5.80
2015,03,18,00,30,5.80
2015,03,18,00,31,5.70
2015,03,18,00,32,5.70
2015,03,18,00,33,5.70
2015,03,18,00,34,5.60
2015,03,18,00,35,5.60
2015,03,18,00,36,5.60
2015,03,18,00,37,5.50
2015,03,18,00,38,5.50
2015,03,18,00,39,5.40
2015,03,18,00,40,5.40
2015,03,18,00,41,5.40
2015,03,18,00,42,5.40
2015,03,18,00,43,5.30
2015,03,18,00,44,5.30
2015,03,18,00,45,5.30
2015,03,18,00,46,5.20
2015,03,18,00,47,5.20
2015,03,18,00,48,5.20
2015,03,18,00,49,5.20
2015,03,18,00,50,5.20
2015,03,18,00,51,5.20
2015,03,18,00,52,5.10
2015,03,18,00,53,5.10
2015,03,18,00,54,5.10
2015,03,18,00,55,5.10
2015,03,18,00,56,5.10
2015,03,18,00,57,5.00
2015,03,18,00,58,5.00
2015,03,18,00,59,5.00
2015,03,18,01,00,4.90
2015,03,18,01,01,4.90
2015,03,18,01,02,4.90
2015,03,18,01,03,4.80
2015,03,18,01,04,4.80
2015,03,18,01,05,4.80
2015,03,18,01,06,4.80
2015,03,18,01,07,4.80
2015,03,18,01,08,4.80
2015,03,18,01,09,4.80
2015,03,18,01,10,4.70
2015,03,18,01,11,4.70
2015,03,18,01,12,4.70
2015,03,18,01,13,4.70
2015,03,18,01,14,4.60
2015,03,18,01,15,4.60
2015,03,18,01,16,4.60
2015,03,18,01,17,4.50
2015,03,18,01,18,4.50
2015,03,18,01,19,4.50
2015,03,18,01,20,4.40
2015,03,18,01,21,4.40
2015,03,18,01,22,4.40
2015,03,18,01,23,4.40
2015,03,18,01,24,4.40
2015,03,18,01,25,4.40
2015,03,18,01,26,4.40
2015,03,18,01,27,4.40
2015,03,18,01,28,4.40
2015,03,18,01,29,4.30
2015,03,18,01,30,4.30
2015,03,18,01,31,4.30
2015,03,18,01,32,4.30
2015,03,18,01,33,4.30
2015,03,18,01,34,4.20
2015,03,18,01,35,4.20
2015,03,18,01,36,4.20
2015,03,18,01,37,4.20
2015,03,18,01,38,4.20
2015,03,18,01,39,4.20
2015,03,18,01,40,4.10
2015,03,18,01,41,4.10
2015,03,18,01,42,4.10
2015,03,18,01,43,4.10
2015,03,18,01,44,4.10
2015,03,18,01,45,4.00
2015,03,18,01,46,4.00
2015,03,18,01,47,4.00
2015,03,18,01,48,4.00
2015,03,18,01,49,4.00
2015,03,18,01,50,4.00
2015,03,18,01,51,4.00
2015,03,18,01,52,4.00
2015,03,18,01,53,4.00
2015,03,18,01,54,3.90
2015,03,18,01,55,3.90
2015,03,18,01,56,3.80
2015,03,18,01,57,3.80
2015,03,18,01,58,3.70
2015,03,18,01,59,3.70
2015,03,18,02,00,3.70
2015,03,18,02,01,3.60
2015,03,18,02,02,3.60
2015,03,18,02,03,3.60
2015,03,18,02,04,3.60
2015,03,18,02,05,3.60
2015,03,18,02,06,3.60
2015,03,18,02,07,3.50
2015,03,18,02,08,3.50
2015,03,18,02,09,3.50
2015,03,18,02,10,3.50
2015,03,18,02,11,3.50
2015,03,18,02,12,3.40
2015,03,18,02,13,3.40
2015,03,18,02,14,3.40
2015,03,18,02,15,3.40
2015,03,18,02,16,3.40
2015,03,18,02,17,3.40
2015,03,18,02,18,3.40
2015,03,18,02,19,3.30
2015,03,18,02,20,3.30
2015,03,18,02,21,3.30
2015,03,18,02,22,3.30
2015,03,18,02,23,3.30
2015,03,18,02,24,3.30
2015,03,18,02,25,3.30
2015,03,18,02,26,3.20
2015,03,18,02,27,3.20
2015,03,18,02,28,3.20
2015,03,18,02,29,3.20
2015,03,18,02,30,3.20
2015,03,18,02,31,3.20
2015,03,18,02,32,3.20
2015,03,18,02,33,3.20
2015,03,18,02,34,3.10
2015,03,18,02,35,3.10
2015,03,18,02,36,3.10
2015,03,18,02,37,3.10
2015,03,18,02,38,3.10
2015,03,18,02,39,3.10
2015,03,18,02,40,3.10
2015,03,18,02,41,3.10
2015,03,18,02,42,3.10
2015,03,18,02,43,3.10
2015,03,18,02,44,3.10
2015,03,18,02,45,3.10
2015,03,18,02,46,3.10
2015,03,18,02,47,3.00
2015,03,18,02,48,3.00
2015,03,18,02,49,3.00
2015,03,18,02,50,3.00
2015,03,18,02,51,2.90
2015,03,18,02,52,2.90
2015,03,18,02,53,2.90
2015,03,18,02,54,2.80
2015,03,18,02,55,2.80
2015,03,18,02,56,2.80
2015,03,18,02,57,2.80
2015,03,18,02,58,2.80
2015,03,18,02,59,2.80
2015,03,18,03,00,2.80
2015,03,18,03,01,2.80
2015,03,18,03,02,2.80
2015,03,18,03,03,2.80
2015,03,18,03,04,2.70
2015,03,18,03,05,2.70
2015,03,18,03,06,2.70
2015,03,18,03,07,2.70
2015,03,18,03,08,2.70
2015,03,18,03,09,2.70
2015,03,18,03,10,2.70
2015,03,18,03,11,2.70
2015,03,18,03,12,2.60
2015,03,18,03,13,2.60
2015,03,18,03,14,2.60
2015,03,18,03,15,2.60
2015,03,18,03,16,2.60
2015,03,18,03,17,2.60
2015,03,18,03,18,2.60
2015,03,18,03,19,2.60
2015,03,18,03,20,2.60
2015,03,18,03,21,2.50
2015,03,18,03,22,2.50
2015,03,18,03,23,2.50
2015,03,18,03,24,2.50
2015,03,18,03,25,2.50
2015,03,18,03,26,2.40
2015,03,18,03,27,2.40
2015,03,18,03,28,2.40
2015,03,18,03,29,2.40
2015,03,18,03,30,2.40
2015,03,18,03,31,2.40
2015,03,18,03,32,2.40
2015,03,18,03,33,2.40
2015,03,18,03,34,2.40
2015,03,18,03,35,2.40
2015,03,18,03,36,2.40
2015,03,18,03,37,2.40
2015,03,18,03,38,2.40
2015,03,18,03,39,2.30
2015,03,18,03,40,2.30
2015,03,18,03,41,2.30
2015,03,18,03,42,2.30
2015,03,18,03,43,2.30
2015,03,18,03,44,2.30
2015,03,18,03,45,2.30
2015,03,18,03,46,2.30
2015,03,18,03,47,2.20
2015,03,18,03,48,2.20
2015,03,18,03,49,2.20
2015,03,18,03,50,2.20
2015,03,18,03,51,2.20
2015,03,18,03,52,2.20
2015,03,18,03,53,2.20
2015,03,18,03,54,2.20
2015,03,18,03,55,2.20
2015,03,18,03,56,2.20
2015,03,18,03,57,2.30
2015,03,18,03,58,2.30
2015,03,18,03,59,2.30
2015,03,18,04,00,2.30
2015,03,18,04,01,2.30
2015,03,18,04,02,2.20
2015,03,18,04,03,2.20
2015,03,18,04,04,2.20
2015,03,18,04,05,2.10
2015,03,18,04,06,2.10
2015,03,18,04,07,2.10
2015,03,18,04,08,2.00
2015,03,18,04,09,2.00
2015,03,18,04,10,2.00
2015,03,18,04,11,1.90
2015,03,18,04,12,1.90
2015,03,18,04,13,1.90
2015,03,18,04,14,1.90
2015,03,18,04,15,1.90
2015,03,18,04,16,1.90
2015,03,18,04,17,1.90
2015,03,18,04,18,1.90
2015,03,18,04,19,1.90
2015,03,18,04,20,1.90
2015,03,18,04,21,1.80
2015,03,18,04,22,1.80
2015,03,18,04,23,1.80
2015,03,18,04,24,1.80
2015,03,18,04,25,1.80
2015,03,18,04,26,1.80
2015,03,18,04,27,1.80
2015,03,18,04,28,1.80
2015,03,18,04,29,1.70
2015,03,18,04,30,1.80
2015,03,18,04,31,1.80
2015,03,18,04,32,1.80
2015,03,18,04,33,1.80
2015,03,18,04,34,1.80
2015,03,18,04,35,1.80
2015,03,18,04,36,1.80
2015,03,18,04,37,1.70
2015,03,18,04,38,1.70
2015,03,18,04,39,1.70
2015,03,18,04,40,1.70
2015,03,18,04,41,1.60
2015,03,18,04,42,1.60
2015,03,18,04,43,1.60
2015,03,18,04,44,1.60
2015,03,18,04,45,1.60
2015,03,18,04,46,1.60
2015,03,18,04,47,1.60
2015,03,18,04,48,1.60
2015,03,18,04,49,1.60
2015,03,18,04,50,1.60
2015,03,18,04,51,1.60
2015,03,18,04,52,1.60
2015,03,18,04,53,1.50
2015,03,18,04,54,1.50
2015,03,18,04,55,1.50
2015,03,18,04,56,1.40
2015,03,18,04,57,1.40
2015,03,18,04,58,1.40
2015,03,18,04,59,1.40
2015,03,18,05,00,1.40
2015,03,18,05,01,1.40
2015,03,18,05,02,1.40
2015,03,18,05,03,1.40
2015,03,18,05,04,1.30
2015,03,18,05,05,1.30
2015,03,18,05,06,1.30
2015,03,18,05,07,1.30
2015,03,18,05,08,1.30
2015,03,18,05,09,1.30
2015,03,18,05,10,1.30
2015,03,18,05,11,1.30
2015,03,18,05,12,1.30
2015,03,18,05,13,1.40
2015,03,18,05,14,1.40
2015,03,18,05,15,1.40
2015,03,18,05,16,1.40
2015,03,18,05,17,1.40
2015,03,18,05,18,1.40
2015,03,18,05,19,1.30
2015,03,18,05,20,1.30
2015,03,18,05,21,1.30
2015,03,18,05,22,1.30
2015,03,18,05,23,1.30
2015,03,18,05,24,1.30
2015,03,18,05,25,1.30
2015,03,18,05,26,1.30
2015,03,18,05,27,1.30
2015,03,18,05,28,1.30
2015,03,18,05,29,1.30
2015,03,18,05,30,1.30
2015,03,18,05,31,1.30
2015,03,18,05,32,1.30
2015,03,18,05,33,1.30
2015,03,18,05,34,1.30
2015,03,18,05,35,1.30
2015,03,18,05,36,1.30
2015,03,18,05,37,1.30
2015,03,18,05,38,1.30
2015,03,18,05,39,1.40
2015,03,18,05,40,1.40
2015,03,18,05,41,1.40
2015,03,18,05,42,1.40
2015,03,18,05,43,1.40
2015,03,18,05,44,1.40
2015,03,18,05,45,1.40
2015,03,18,05,46,1.40
2015,03,18,05,47,1.30
2015,03,18,05,48,1.30
2015,03,18,05,49,1.30
2015,03,18,05,50,1.30
2015,03,18,05,51,1.30
2015,03,18,05,52,1.30
2015,03,18,05,53,1.30
2015,03,18,05,54,1.30
2015,03,18,05,55,1.30
2015,03,18,05,56,1.30
2015,03,18,05,57,1.30
2015,03,18,05,58,1.30
2015,03,18,05,59,1.30
2015,03,18,06,00,1.30
2015,03,18,06,01,1.20
2015,03,18,06,02,1.20
2015,03,18,06,03,1.20
2015,03,18,06,04,1.20
2015,03,18,06,05,1.20
2015,03,18,06,06,1.20
2015,03,18,06,07,1.20
2015,03,18,06,08,1.20
2015,03,18,06,09,1.20
2015,03,18,06,10,1.20
2015,03,18,06,11,1.10
2015,03,18,06,12,1.10
2015,03,18,06,13,1.10
2015,03,18,06,14,1.10
2015,03,18,06,15,1.10
2015,03,18,06,16,1.20
2015,03,18,06,17,1.20
2015,03,18,06,18,1.20
2015,03,18,06,19,1.10
2015,03,18,06,20,1.10
2015,03,18,06,21,1.10
2015,03,18,06,22,1.10
2015,03,18,06,23,1.10
2015,03,18,06,24,1.10
2015,03,18,06,25,1.10
2015,03,18,06,26,1.00
2015,03,18,06,27,1.00
2015,03,18,06,28,1.00
2015,03,18,06,29,0.90
2015,03,18,06,30,0.90
2015,03,18,06,31,0.90
2015,03,18,06,32,0.80
2015,03,18,06,33,0.80
2015,03,18,06,34,0.80
2015,03,18,06,35,0.80
2015,03,18,06,36,0.80
2015,03,18,06,37,0.80
2015,03,18,06,38,0.80
2015,03,18,06,39,0.80
2015,03,18,06,40,0.80
2015,03,18,06,41,0.80
2015,03,18,06,42,0.80
2015,03,18,06,43,0.80
2015,03,18,06,44,0.80
2015,03,18,06,45,0.80
2015,03,18,06,46,0.80
2015,03,18,06,47,0.80
2015,03,18,06,48,0.80
2015,03,18,06,49,0.80
2015,03,18,06,50,0.80
2015,03,18,06,51,0.80
2015,03,18,06,52,0.80
2015,03,18,06,53,0.70
2015,03,18,06,54,0.70
2015,03,18,06,55,0.70
2015,03,18,06,56,0.70
2015,03,18,06,57,0.70
2015,03,18,06,58,0.70
2015,03,18,06,59,0.70
2015,03,18,07,00,0.70
2015,03,18,07,01,0.70
2015,03,18,07,02,0.70
2015,03,18,07,03,0.70
2015,03,18,07,04,0.70
2015,03,18,07,05,0.70
2015,03,18,07,06,0.70
2015,03,18,07,07,0.70
2015,03,18,07,08,0.70
2015,03,18,07,09,0.70
2015,03,18,07,10,0.70
2015,03,18,07,11,0.70
2015,03,18,07,12,0.70
2015,03,18,07,13,0.70
2015,03,18,07,14,0.70
2015,03,18,07,15,0.70
2015,03,18,07,16,0.70
2015,03,18,07,17,0.70
2015,03,18,07,18,0.80
2015,03,18,07,19,0.80
2015,03,18,07,20,0.80
2015,03,18,07,21,0.80
2015,03,18,07,22,0.80
2015,03,18,07,23,0.90
2015,03,18,07,24,0.90
2015,03,18,07,25,0.90
2015,03,18,07,26,1.00
2015,03,18,07,27,1.00
2015,03,18,07,28,1.10
2015,03,18,07,29,1.10
2015,03,18,07,30,1.10
2015,03,18,07,31,1.20
2015,03,18,07,32,1.20
2015,03,18,07,33,1.20
2015,03,18,07,34,1.30
2015,03,18,07,35,1.30
2015,03,18,07,36,1.30
2015,03,18,07,37,1.30
2015,03,18,07,38,1.40
2015,03,18,07,39,1.40
2015,03,18,07,40,1.50
2015,03,18,07,41,1.50
2015,03,18,07,42,1.50
2015,03,18,07,43,1.60
2015,03,18,07,44,1.60
2015,03,18,07,45,1.60
2015,03,18,07,46,1.60
2015,03,18,07,47,1.70
2015,03,18,07,48,1.70
2015,03,18,07,49,1.70
2015,03,18,07,50,1.70
2015,03,18,07,51,1.70
2015,03,18,07,52,1.70
2015,03,18,07,53,1.80
2015,03,18,07,54,1.80
2015,03,18,07,55,1.80
2015,03,18,07,56,1.80
2015,03,18,07,57,1.80
2015,03,18,07,58,1.80
2015,03,18,07,59,1.80
2015,03,18,08,00,1.80
2015,03,18,08,01,1.90
2015,03,18,08,02,1.90
2015,03,18,08,03,1.90
2015,03,18,08,04,1.90
2015,03,18,08,05,2.00
2015,03,18,08,06,2.00
2015,03,18,08,07,2.00
2015,03,18,08,08,2.10
2015,03,18,08,09,2.10
2015,03,18,08,10,2.10
2015,03,18,08,11,2.10
2015,03,18,08,12,2.20
2015,03,18,08,13,2.20
2015,03,18,08,14,2.20
2015,03,18,08,15,2.20
2015,03,18,08,16,2.30
2015,03,18,08,17,2.30
2015,03,18,08,18,2.30
2015,03,18,08,19,2.30
2015,03,18,08,20,2.40
2015,03,18,08,21,2.40
2015,03,18,08,22,2.50
2015,03,18,08,23,2.60
2015,03,18,08,24,2.60
2015,03,18,08,25,2.70
2015,03,18,08,26,2.70
2015,03,18,08,27,2.80
2015,03,18,08,28,2.80
2015,03,18,08,29,2.80
2015,03,18,08,30,2.90
2015,03,18,08,31,2.90
2015,03,18,08,32,2.90
2015,03,18,08,33,3.00
2015,03,18,08,34,3.00
2015,03,18,08,35,3.10
2015,03,18,08,36,3.20
2015,03,18,08,37,3.20
2015,03,18,08,38,3.20
2015,03,18,08,39,3.20
2015,03,18,08,40,3.20
2015,03,18,08,41,3.30
2015,03,18,08,42,3.30
2015,03,18,08,43,3.30
2015,03,18,08,44,3.40
2015,03,18,08,45,3.50
2015,03,18,08,46,3.50
2015,03,18,08,47,3.60
2015,03,18,08,48,3.60
2015,03,18,08,49,3.60
2015,03,18,08,50,3.70
2015,03,18,08,51,3.70
2015,03,18,08,52,3.70
2015,03,18,08,53,3.70
2015,03,18,08,54,3.80
2015,03,18,08,55,3.80
2015,03,18,08,56,3.80
2015,03,18,08,57,3.90
2015,03,18,08,58,3.90
2015,03,18,08,59,4.00
2015,03,18,09,00,4.00
2015,03,18,09,01,4.10
2015,03,18,09,02,4.10
2015,03,18,09,03,4.20
2015,03,18,09,04,4.20
2015,03,18,09,05,4.30
2015,03,18,09,06,4.30
2015,03,18,09,07,4.30
2015,03,18,09,08,4.30
2015,03,18,09,09,4.30
2015,03,18,09,10,4.40
2015,03,18,09,11,4.40
2015,03,18,09,12,4.40
2015,03,18,09,13,4.50
2015,03,18,09,14,4.50
2015,03,18,09,15,4.50
2015,03,18,09,16,4.60
2015,03,18,09,17,4.60
2015,03,18,09,18,4.60
2015,03,18,09,19,4.70
2015,03,18,09,20,4.70
2015,03,18,09,21,4.80
2015,03,18,09,22,4.90
2015,03,18,09,23,4.90
2015,03,18,09,24,4.90
2015,03,18,09,25,5.00
2015,03,18,09,26,5.00
2015,03,18,09,27,5.10
2015,03,18,09,28,5.10
2015,03,18,09,29,5.10
2015,03,18,09,30,5.10
2015,03,18,09,31,5.10
2015,03,18,09,32,5.20
2015,03,18,09,33,5.20
2015,03,18,09,34,5.20
2015,03,18,09,35,5.20
2015,03,18,09,36,5.20
2015,03,18,09,37,5.20
2015,03,18,09,38,5.20
2015,03,18,09,39,5.30
2015,03,18,09,40,5.30
2015,03,18,09,41,5.30
2015,03,18,09,42,5.30
2015,03,18,09,43,5.40
2015,03,18,09,44,5.40
2015,03,18,09,45,5.40
2015,03,18,09,46,5.40
2015,03,18,09,47,5.40
2015,03,18,09,48,5.50
2015,03,18,09,49,5.50
2015,03,18,09,50,5.50
2015,03,18,09,51,5.60
2015,03,18,09,52,5.60
2015,03,18,09,53,5.60
2015,03,18,09,54,5.60
2015,03,18,09,55,5.70
2015,03,18,09,56,5.70
2015,03,18,09,57,5.70
2015,03,18,09,58,5.70
2015,03,18,09,59,5.80
2015,03,18,10,00,5.80
2015,03,18,10,01,5.80
2015,03,18,10,02,5.80
2015,03,18,10,03,5.90
2015,03,18,10,04,5.90
2015,03,18,10,05,6.00
2015,03,18,10,06,6.00
2015,03,18,10,07,6.10
2015,03,18,10,08,6.10
2015,03,18,10,09,6.10
2015,03,18,10,10,6.20
2015,03,18,10,11,6.20
2015,03,18,10,12,6.20
2015,03,18,10,13,6.20
2015,03,18,10,14,6.20
2015,03,18,10,15,6.30
2015,03,18,10,16,6.30
2015,03,18,10,17,6.30
2015,03,18,10,18,6.30
2015,03,18,10,19,6.40
2015,03,18,10,20,6.40
2015,03,18,10,21,6.40
2015,03,18,10,22,6.40
2015,03,18,10,23,6.40
2015,03,18,10,24,6.40
2015,03,18,10,25,6.40
2015,03,18,10,26,6.50
2015,03,18,10,27,6.50
2015,03,18,10,28,6.50
2015,03,18,10,29,6.50
2015,03,18,10,30,6.60
2015,03,18,10,31,6.60
2015,03,18,10,32,6.70
2015,03,18,10,33,6.70
2015,03,18,10,34,6.70
2015,03,18,10,35,6.70
2015,03,18,10,36,6.80
2015,03,18,10,37,6.90
2015,03,18,10,38,6.90
2015,03,18,10,39,6.90
2015,03,18,10,40,7.00
2015,03,18,10,41,7.00
2015,03,18,10,42,7.00
2015,03,18,10,43,7.00
2015,03,18,10,44,7.00
2015,03,18,10,45,7.10
2015,03,18,10,46,7.10
2015,03,18,10,47,7.10
2015,03,18,10,48,7.10
2015,03,18,10,49,7.10
2015,03,18,10,50,7.10
2015,03,18,10,51,7.20
2015,03,18,10,52,7.20
2015,03,18,10,53,7.20
2015,03,18,10,54,7.30
2015,03,18,10,55,7.30
2015,03,18,10,56,7.30
2015,03,18,10,57,7.30
2015,03,18,10,58,7.30
2015,03,18,10,59,7.30
2015,03,18,11,00,7.40
2015,03,18,11,01,7.40
2015,03,18,11,02,7.40
2015,03,18,11,03,7.50
2015,03,18,11,04,7.50
2015,03,18,11,05,7.50
2015,03,18,11,06,7.60
2015,03,18,11,07,7.60
2015,03,18,11,08,7.70
2015,03,18,11,09,7.70
2015,03,18,11,10,7.80
2015,03,18,11,11,7.80
2015,03,18,11,12,7.80
2015,03,18,11,13,7.90
2015,03,18,11,14,7.90
2015,03,18,11,15,7.90
2015,03,18,11,16,8.00
2015,03,18,11,17,8.00
2015,03,18,11,18,8.00
2015,03,18,11,19,8.00
2015,03,18,11,20,8.00
2015,03,18,11,21,8.00
2015,03,18,11,22,8.00
2015,03,18,11,23,8.10
2015,03,18,11,24,8.10
2015,03,18,11,25,8.10
2015,03,18,11,26,8.10
2015,03,18,11,27,8.10
2015,03,18,11,28,8.20
2015,03,18,11,29,8.20
2015,03,18,11,30,8.20
2015,03,18,11,31,8.20
2015,03,18,11,32,8.20
2015,03,18,11,33,8.20
2015,03,18,11,34,8.20
2015,03,18,11,35,8.20
2015,03,18,11,36,8.20
2015,03,18,11,37,8.20
2015,03,18,11,38,8.20
2015,03,18,11,39,8.20
2015,03,18,11,40,8.30
2015,03,18,11,41,8.30
2015,03,18,11,42,8.30
2015,03,18,11,43,8.30
2015,03,18,11,44,8.30
2015,03,18,11,45,8.30
2015,03,18,11,46,8.30
2015,03,18,11,47,8.30
2015,03,18,11,48,8.30
2015,03,18,11,49,8.30
2015,03,18,11,50,8.30
2015,03,18,11,51,8.30
2015,03,18,11,52,8.40
2015,03,18,11,53,8.40
2015,03,18,11,54,8.40
2015,03,18,11,55,8.40
2015,03,18,11,56,8.50
2015,03,18,11,57,8.50
2015,03,18,11,58,8.50
2015,03,18,11,59,8.50
2015,03,18,12,00,8.50
2015,03,18,12,01,8.50
2015,03,18,12,02,8.60
2015,03,18,12,03,8.60
2015,03,18,12,04,8.60
2015,03,18,12,05,8.60
2015,03,18,12,06,8.70
2015,03,18,12,07,8.70
2015,03,18,12,08,8.70
2015,03,18,12,09,8.80
2015,03,18,12,10,8.80
2015,03,18,12,11,8.80
2015,03,18,12,12,8.90
2015,03,18,12,13,8.90
2015,03,18,12,14,8.90
2015,03,18,12,15,9.00
2015,03,18,12,16,9.00
2015,03,18,12,17,9.00
2015,03,18,12,18,9.00
2015,03,18,12,19,9.10
2015,03,18,12,20,9.10
2015,03,18,12,21,9.10
2015,03,18,12,22,9.10
2015,03,18,12,23,9.10
2015,03,18,12,24,9.10
2015,03,18,12,25,9.10
2015,03,18,12,26,9.10
2015,03,18,12,27,9.10
2015,03,18,12,28,9.10
2015,03,18,12,29,9.10
2015,03,18,12,30,9.10
2015,03,18,12,31,9.10
2015,03,18,12,32,9.10
2015,03,18,12,33,9.10
2015,03,18,12,34,9.10
2015,03,18,12,35,9.00
2015,03,18,12,36,9.00
2015,03,18,12,37,9.00
2015,03,18,12,38,9.00
2015,03,18,12,39,9.10
2015,03,18,12,40,9.10
2015,03,18,12,41,9.10
2015,03,18,12,42,9.10
2015,03,18,12,43,9.10
2015,03,18,12,44,9.10
2015,03,18,12,45,9.10
2015,03,18,12,46,9.10
2015,03,18,12,47,9.10
2015,03,18,12,48,9.10
2015,03,18,12,49,9.10
2015,03,18,12,50,9.10
2015,03,18,12,51,9.10
2015,03,18,12,52,9.10
2015,03,18,12,53,9.10
2015,03,18,12,54,9.10
2015,03,18,12,55,9.10
2015,03,18,12,56,9.10
2015,03,18,12,57,9.20
2015,03,18,12,58,9.20
2015,03,18,12,59,9.20
2015,03,18,13,00,9.20
2015,03,18,13,01,9.20
2015,03,18,13,02,9.20
2015,03,18,13,03,9.20
2015,03,18,13,04,9.20
2015,03,18,13,05,9.30
2015,03,18,13,06,9.30
2015,03,18,13,07,9.30
2015,03,18,13,08,9.30
2015,03,18,13,09,9.30
2015,03,18,13,10,9.20
2015,03,18,13,11,9.20
2015,03,18,13,12,9.20
2015,03,18,13,13,9.20
2015,03,18,13,14,9.20
2015,03,18,13,15,9.10
2015,03,18,13,16,9.10
2015,03,18,13,17,9.10
2015,03,18,13,18,9.10
2015,03,18,13,19,9.10
2015,03,18,13,20,9.10
2015,03,18,13,21,9.10
2015,03,18,13,22,9.10
2015,03,18,13,23,9.10
2015,03,18,13,24,9.10
2015,03,18,13,25,9.10
2015,03,18,13,26,9.10
2015,03,18,13,27,9.10
2015,03,18,13,28,9.10
2015,03,18,13,29,9.10
2015,03,18,13,30,9.10
2015,03,18,13,31,9.10
2015,03,18,13,32,9.10
2015,03,18,13,33,9.10
2015,03,18,13,34,9.10
2015,03,18,13,35,9.10
2015,03,18,13,36,9.10
2015,03,18,13,37,9.00
2015,03,18,13,38,9.00
2015,03,18,13,39,9.00
2015,03,18,13,40,9.00
2015,03,18,13,41,9.00
2015,03,18,13,42,9.10
2015,03,18,13,43,9.10
2015,03,18,13,44,9.10
2015,03,18,13,45,9.10
2015,03,18,13,46,9.10
2015,03,18,13,47,9.10
2015,03,18,13,48,9.10
2015,03,18,13,49,9.10
2015,03,18,13,50,9.10
2015,03,18,13,51,9.10
2015,03,18,13,52,9.20
2015,03,18,13,53,9.10
2015,03,18,13,54,9.10
2015,03,18,13,55,9.10
2015,03,18,13,56,9.10
2015,03,18,13,57,9.10
2015,03,18,13,58,9.10
2015,03,18,13,59,9.10
2015,03,18,14,00,9.10
2015,03,18,14,01,9.10
2015,03,18,14,02,9.10
2015,03,18,14,03,9.10
2015,03,18,14,04,9.10
2015,03,18,14,05,9.10
2015,03,18,14,06,9.10
2015,03,18,14,07,9.10
2015,03,18,14,08,9.10
2015,03,18,14,09,9.10
2015,03,18,14,10,9.10
2015,03,18,14,11,9.00
2015,03,18,14,12,9.00
2015,03,18,14,13,9.00
2015,03,18,14,14,9.00
2015,03,18,14,15,9.00
2015,03,18,14,16,9.00
2015,03,18,14,17,9.00
2015,03,18,14,18,9.00
2015,03,18,14,19,9.00
2015,03,18,14,20,9.00
2015,03,18,14,21,9.00
2015,03,18,14,22,9.00
2015,03,18,14,23,9.00
2015,03,18,14,24,9.00
2015,03,18,14,25,9.00
2015,03,18,14,26,9.00
2015,03,18,14,27,9.10
2015,03,18,14,28,9.10
2015,03,18,14,29,9.10
2015,03,18,14,30,9.10
2015,03,18,14,31,9.10
2015,03,18,14,32,9.10
2015,03,18,14,33,9.10
2015,03,18,14,34,9.20
2015,03,18,14,35,9.20
2015,03,18,14,36,9.20
2015,03,18,14,37,9.20
2015,03,18,14,38,9.20
2015,03,18,14,39,9.20
2015,03,18,14,40,9.20
2015,03,18,14,41,9.30
2015,03,18,14,42,9.30
2015,03,18,14,43,9.30
2015,03,18,14,44,9.30
2015,03,18,14,45,9.30
2015,03,18,14,46,9.30
2015,03,18,14,47,9.30
2015,03,18,14,48,9.30
2015,03,18,14,49,9.30
2015,03,18,14,50,9.30
2015,03,18,14,51,9.30
2015,03,18,14,52,9.30
2015,03,18,14,53,9.30
2015,03,18,14,54,9.30
2015,03,18,14,55,9.30
2015,03,18,14,56,9.30
2015,03,18,14,57,9.30
2015,03,18,14,58,9.30
2015,03,18,14,59,9.30
2015,03,18,15,00,9.30
2015,03,18,15,01,9.30
2015,03,18,15,02,9.30
2015,03,18,15,03,9.30
2015,03,18,15,04,9.30
2015,03,18,15,05,9.30
2015,03,18,15,06,9.30
2015,03,18,15,07,9.30
2015,03,18,15,08,9.30
2015,03,18,15,09,9.30
2015,03,18,15,10,9.40
2015,03,18,15,11,9.40
2015,03,18,15,12,9.40
2015,03,18,15,13,9.40
2015,03,18,15,14,9.40
2015,03,18,15,15,9.40
2015,03,18,15,16,9.40
2015,03,18,15,17,9.40
2015,03,18,15,18,9.40
2015,03,18,15,19,9.40
2015,03,18,15,20,9.40
2015,03,18,15,21,9.40
2015,03,18,15,22,9.40
2015,03,18,15,23,9.40
2015,03,18,15,24,9.40
2015,03,18,15,25,9.40
2015,03,18,15,26,9.40
2015,03,18,15,27,9.40
2015,03,18,15,28,9.40
2015,03,18,15,29,9.40
2015,03,18,15,30,9.40
2015,03,18,15,31,9.40
2015,03,18,15,32,9.40
2015,03,18,15,33,9.40
2015,03,18,15,34,9.50
2015,03,18,15,35,9.50
2015,03,18,15,36,9.50
2015,03,18,15,37,9.50
2015,03,18,15,38,9.50
2015,03,18,15,39,9.60
2015,03,18,15,40,9.60
2015,03,18,15,41,9.60
2015,03,18,15,42,9.60
2015,03,18,15,43,9.60
2015,03,18,15,44,9.70
2015,03,18,15,45,9.70
2015,03,18,15,46,9.70
2015,03,18,15,47,9.70
2015,03,18,15,48,9.70
2015,03,18,15,49,9.70
2015,03,18,15,50,9.70
2015,03,18,15,51,9.70
2015,03,18,15,52,9.70
2015,03,18,15,53,9.80
2015,03,18,15,54,9.80
2015,03,18,15,55,9.80
2015,03,18,15,56,9.80
2015,03,18,15,57,9.80
2015,03,18,15,58,9.80
2015,03,18,15,59,9.80
2015,03,18,16,00,9.80
2015,03,18,16,01,9.80
2015,03,18,16,02,9.80
2015,03,18,16,03,9.80
2015,03,18,16,04,9.80
2015,03,18,16,05,9.80
2015,03,18,16,06,9.80
2015,03,18,16,07,9.80
2015,03,18,16,08,9.80
2015,03,18,16,09,9.80
2015,03,18,16,10,9.80
2015,03,18,16,11,9.80
2015,03,18,16,12,9.80
2015,03,18,16,13,9.80
2015,03,18,16,14,9.80
2015,03,18,16,15,9.80
2015,03,18,16,16,9.80
2015,03,18,16,17,9.80
2015,03,18,16,18,9.80
2015,03,18,16,19,9.80
2015,03,18,16,20,9.80
2015,03,18,16,21,9.80
2015,03,18,16,22,9.80
2015,03,18,16,23,9.80
2015,03,18,16,24,9.80
2015,03,18,16,25,9.80
2015,03,18,16,26,9.80
2015,03,18,16,27,9.80
2015,03,18,16,28,9.80
2015,03,18,16,29,9.80
2015,03,18,16,30,9.80
2015,03,18,16,31,9.80
2015,03,18,16,32,9.80
2015,03,18,16,33,9.80
2015,03,18,16,34,9.80
2015,03,18,16,35,9.80
2015,03,18,16,36,9.80
2015,03,18,16,37,9.80
2015,03,18,16,38,9.80
2015,03,18,16,39,9.80
2015,03,18,16,40,9.80
2015,03,18,16,41,9.80
2015,03,18,16,42,9.80
2015,03,18,16,43,9.90
2015,03,18,16,44,9.90
2015,03,18,16,45,9.90
2015,03,18,16,46,9.90
2015,03,18,16,47,9.90
2015,03,18,16,48,9.90
2015,03,18,16,49,9.90
2015,03,18,16,50,9.90
2015,03,18,16,51,10.00
2015,03,18,16,52,10.00
2015,03,18,16,53,10.00
2015,03,18,16,54,10.00
2015,03,18,16,55,10.00
2015,03,18,16,56,10.00
2015,03,18,16,57,10.00
2015,03,18,16,58,10.00
2015,03,18,16,59,9.90
2015,03,18,17,00,9.90
2015,03,18,17,01,9.90
2015,03,18,17,02,9.90
2015,03,18,17,03,9.90
2015,03,18,17,04,9.90
2015,03,18,17,05,9.90
2015,03,18,17,06,9.80
2015,03,18,17,07,9.80
2015,03,18,17,08,9.80
2015,03,18,17,09,9.80
2015,03,18,17,10,9.80
2015,03,18,17,11,9.80
2015,03,18,17,12,9.80
2015,03,18,17,13,9.80
2015,03,18,17,14,9.80
2015,03,18,17,15,9.80
2015,03,18,17,16,9.80
2015,03,18,17,17,9.80
2015,03,18,17,18,9.80
2015,03,18,17,19,9.80
2015,03,18,17,20,9.80
2015,03,18,17,21,9.80
2015,03,18,17,22,9.80
2015,03,18,17,23,9.80
2015,03,18,17,24,9.80
2015,03,18,17,25,9.70
2015,03,18,17,26,9.70
2015,03,18,17,27,9.70
2015,03,18,17,28,9.70
2015,03,18,17,29,9.70
2015,03,18,17,30,9.70
2015,03,18,17,31,9.70
2015,03,18,17,32,9.70
2015,03,18,17,33,9.70
2015,03,18,17,34,9.60
2015,03,18,17,35,9.60
2015,03,18,17,36,9.60
2015,03,18,17,37,9.60
2015,03,18,17,38,9.60
2015,03,18,17,39,9.60
2015,03,18,17,40,9.60
2015,03,18,17,41,9.60
2015,03,18,17,42,9.60
2015,03,18,17,43,9.60
2015,03,18,17,44,9.60
2015,03,18,17,45,9.50
2015,03,18,17,46,9.50
2015,03,18,17,47,9.50
2015,03,18,17,48,9.50
2015,03,18,17,49,9.50
2015,03,18,17,50,9.50
2015,03,18,17,51,9.50
2015,03,18,17,52,9.40
2015,03,18,17,53,9.50
2015,03,18,17,54,9.40
2015,03,18,17,55,9.40
2015,03,18,17,56,9.40
2015,03,18,17,57,9.40
2015,03,18,17,58,9.50
2015,03,18,17,59,9.50
2015,03,18,18,00,9.50
2015,03,18,18,01,9.50
2015,03,18,18,02,9.50
2015,03,18,18,03,9.50
2015,03,18,18,04,9.50
2015,03,18,18,05,9.50
2015,03,18,18,06,9.50